Weather Roundup
Issued by NWS

Home | Current Version | Previous Version | Text Only | Print | Product List | Glossary On
Versions: 1 2 3 4 5 6 7 8 9 10 11 12 13 14 15 16 17 18 19 20 21 22 23 24 25 26 27 28 29 30 31 32 33 34 35 36 37 38 39 40 41 42 43 44 45 46 47 48 49 50
000
NZUS93 KARX 030659
HRRWXR

CURRENT HOURLY OBSERVATIONS ACROSS
MUCH OF THE UPPER MISSISSIPPI VALLEY
NATIONAL WEATHER SERVICE LA CROSSE WI
100 AM CST TUE MAR 03 2015


...SOUTHEAST MINNESOTA...


CITY           SKY/WX    TMP DP  RH WIND       PRES   REMARKS
ROCHESTER      CLOUDY    20  13  74 SE13      29.99F WCI   7
ROCHESTER/MAYO CLOUDY    21  11  65 SE10      29.99F WCI  10
WINONA         CLOUDY    25  14  63 SE6       30.07F WCI  18
AUSTIN         CLOUDY    21  16  79 SE8       29.97F WCI  12
ALBERT LEA     CLOUDY    21  18  86 SE12      29.96F WCI   9
DODGE CENTER   CLOUDY    21  16  79 SE16      29.96F WCI   7
PRESTON        CLOUDY    21  13  71 SE7       30.01F WCI  12
OWATONNA       CLOUDY    21  14  73 SE16      29.95F WCI   7
FARIBAULT      CLOUDY    21  14  73 SE9       29.97F WCI  11
$$

...ELSEWHERE IN MINNESOTA...


CITY           SKY/WX    TMP DP  RH WIND       PRES   REMARKS
MINNEAPOLIS    CLOUDY    22  10  60 SE7       29.99F WCI  13
INTNL FALLS    CLOUDY    24   9  52 VRB7      29.75F WCI  16
DULUTH         CLOUDY    20   4  50 S12       29.91F WCI   8
RED WING       CLOUDY    23  10  58 SE7       30.02F WCI  15
REDWOOD FALLS  CLOUDY    23  18  81 SE16      29.88F WCI  10
MANKATO        CLOUDY    21  12  68 SE12      29.94F WCI   9
FAIRMONT       CLOUDY    23  16  74 SE13      29.90F WCI  11
$$

...SOUTHWEST WISCONSIN...


CITY           SKY/WX    TMP DP  RH WIND       PRES   REMARKS
LA CROSSE      CLOUDY    26  14  60 SE7       30.08F WCI  18
PRAIRIE DU CHI CLOUDY    25  16  68 E7        30.09F WCI  17
BOSCOBEL       CLOUDY    26  16  65 CALM      30.10F
LONE ROCK      NOT AVBL
PLATTEVILLE    CLOUDY    24  19  82 E9        30.10F WCI  15
FORT MC COY    CLOUDY    24  14  67 SE5       30.12F WCI  18
VIROQUA        CLOUDY    22  16  77 SE8       30.07F WCI  13
WIS DELLS      NOT AVBL
$$

...ELSEWHERE IN WISCONSIN...


CITY           SKY/WX    TMP DP  RH WIND       PRES   REMARKS
MILWAUKEE      CLOUDY    25  16  68 S6        30.20F WCI  18
MADISON        CLOUDY    24  15  68 S7        30.14F WCI  16
GREEN BAY      CLOUDY    25  15  66 S9        30.17F WCI  15
EAU CLAIRE     CLOUDY    20  16  84 SE3       30.05F
BLACK RVR FLS  CLOUDY    25  13  61 SE5       30.09F WCI  19
MEDFORD        CLOUDY    20  11  66 S9        30.05F WCI  10
WAUSAU         CLOUDY    22  11  62 S14       30.07F WCI   9
WIS RAPIDS     CLOUDY    21  15  78 CALM      30.12F
MARSHFIELD     CLOUDY    21  17  84 S7        30.08F WCI  12
RICE LAKE      LGT SNOW  21  13  71 S14       30.05F WCI   8
$$

...NORTHEAST IOWA...


CITY           SKY/WX    TMP DP  RH WIND       PRES   REMARKS
DECORAH        CLOUDY    23  18  80 SE9       30.03F WCI  13
MASON CITY     CLOUDY    23  17  78 SE16      29.96F WCI  10
CHARLES CITY   CLOUDY    23  18  80 SE12      30.01F WCI  12
OELWEIN        CLOUDY    25  19  80 SE14      30.03F WCI  13
$$

...ELSEWHERE IN IOWA...


CITY           SKY/WX    TMP DP  RH WIND       PRES   REMARKS
DES MOINES     CLOUDY    30  20  66 SE13      29.96F WCI  20
IOWA CITY      CLOUDY    27  20  75 SE10      30.07F WCI  17
FORT DODGE     CLOUDY    27  18  69 SE8G16    29.92F WCI  18
$$

...NORTHERN ILLINOIS...


CITY           SKY/WX    TMP DP  RH WIND       PRES   REMARKS
CHICAGO-OHARE  CLOUDY    26  16  65 S13       30.20F WCI  15
CHICAGO-MIDWAY CLOUDY    28  16  60 S8        30.22F WCI  20
MOLINE         CLOUDY    27  18  69 SE9       30.10F WCI  18
ROCKFORD       CLOUDY    24  17  74 SE9       30.17F WCI  14
PEORIA         MIX PCPN  28  19  69 SE8       30.15F WCI  20
$$

NOTE: "FAIR" INDICATES FEW OR NO CLOUDS BELOW 12,000 FEET WITH NO
SIGNIFICANT WEATHER AND/OR OBSTRUCTIONS TO VISIBILITY. WIND
SPEEDS ARE IN MILES-PER-HOUR.



USA.gov is the U.S. government's official web portal to all federal, state and local government web resources and services.